Weather Roundup
Issued by NWS

Home | Current Version | Previous Version | Graphics & Text | Print | Product List | Glossary Off
Versions: 1 2 3 4 5 6 7 8 9 10 11 12 13 14 15 16 17 18 19 20 21 22 23 24 25 26 27 28 29 30 31 32 33 34 35 36 37 38 39 40 41 42 43 44 45 46 47 48 49 50

466
NZUS93 KARX 161610
HRRWXR

CURRENT HOURLY OBSERVATIONS ACROSS
MUCH OF THE UPPER MISSISSIPPI VALLEY
NATIONAL WEATHER SERVICE LA CROSSE WI
1000 AM CST SAT DEC 16 2017


...SOUTHEAST MINNESOTA...


CITY           SKY/WX    TMP DP  RH WIND       PRES   REMARKS
ROCHESTER      SUNNY     30  25  81 SE5       29.80R WCI  25
ROCHESTER/MAYO FAIR      32  26  77 E5        29.81R WCI  27
WINONA           N/A     30  28  93 SE9       29.86R WCI  22
AUSTIN         SUNNY     30  25  80 CALM      29.79R
ALBERT LEA     SUNNY     34  25  69 W3        29.80R
DODGE CENTER   SUNNY     30  25  80 CALM      29.80R
PRESTON        SUNNY     31  24  73 CALM      29.81R
OWATONNA       SUNNY     32  27  80 E5        29.80R WCI  27
FARIBAULT      SUNNY     30  27  86 NE5       29.81R WCI  25
$$

...ELSEWHERE IN MINNESOTA...


CITY           SKY/WX    TMP DP  RH WIND       PRES   REMARKS
MINNEAPOLIS    CLOUDY    26  25  96 NE7       29.85R WCI  18
INTNL FALLS    LGT SNOW   1  -4  79 E10       29.94R VSB 1   WCI -15
DULUTH         CLOUDY    18  11  74 E13       29.90R WCI   5
RED WING       CLOUDY    28  23  80 E8        29.84R WCI  20
REDWOOD FALLS  CLOUDY    32  29  88 N7        29.82R FOG     WCI  26
MANKATO        SUNNY     32  27  81 E5        29.81R WCI  27
WORTHINGTON    CLOUDY    34  27  75 NW9       29.81R WCI  27
FAIRMONT       CLOUDY    34  27  75 NW10      29.81R WCI  26
$$

...SOUTHWEST WISCONSIN...


CITY           SKY/WX    TMP DP  RH WIND       PRES   REMARKS
LA CROSSE      MOSUNNY   30  24  78 E9        29.85R WCI  22
PRAIRIE DU CHI SUNNY     37  24  59 E5        29.82R WCI  33
BOSCOBEL       SUNNY     38  26  62 NE3       29.85R
LONE ROCK      MOSUNNY   35  28  75 E9        29.86R WCI  28
PLATTEVILLE    SUNNY     36  27  70 SW3       29.83R
FORT MC COY    CLOUDY    24  21  88 E13       29.86S WCI  12
CAMP DOUGLAS   CLOUDY    21  18  86 E10       29.87R WCI  10
MAUSTON-NEW LI CLOUDY    23  19  85 E7        29.87R WCI  15
VIROQUA        FAIR      31  28  90 E12       29.80R WCI  22
WIS DELLS      CLOUDY    24  22  90 E8        29.87R WCI  15
$$

...ELSEWHERE IN WISCONSIN...


CITY           SKY/WX    TMP DP  RH WIND       PRES   REMARKS
MILWAUKEE      PTSUNNY   38  29  70 CALM      29.88R
MADISON        PTSUNNY   36  25  64 E7        29.87R WCI  30
GREEN BAY      CLOUDY    21  12  68 NE8       29.96R WCI  11
EAU CLAIRE     CLOUDY    22  16  78 E9        29.88R WCI  12
BLACK RVR FLS  CLOUDY    23  18  80 E10       29.87R WCI  12
MEDFORD        CLOUDY    16  10  76 E7        29.87R WCI   6
WAUSAU         CLOUDY    16   7  67 E8        29.90R WCI   5
WIS RAPIDS     CLOUDY    19  12  74 E12       29.91R WCI   7
MARSHFIELD     CLOUDY    17  12  80 E15       29.87R WCI   2
RICE LAKE      CLOUDY    20  15  81 CALM      29.89R
$$

...NORTHEAST IOWA...


CITY           SKY/WX    TMP DP  RH WIND       PRES   REMARKS
WATERLOO       SUNNY     38  24  57 W7        29.81R WCI  33
DUBUQUE        SUNNY     34  25  69 SW5       29.83R WCI  30
DECORAH        SUNNY     32  25  74 CALM      29.79R
MASON CITY     CLOUDY    38  26  62 NW7       29.79R WCI  33
CHARLES CITY   CLOUDY    34  25  69 CALM      29.79R
OELWEIN        SUNNY     36  27  69 W8        29.81R WCI  29
$$

...ELSEWHERE IN IOWA...


CITY           SKY/WX    TMP DP  RH WIND       PRES   REMARKS
DES MOINES     MOSUNNY   42  25  50 SW10      29.82R
IOWA CITY      SUNNY     41  27  57 S8        29.86R
FORT DODGE     SUNNY     38  25  59 W6        29.81R WCI  33
MARSHALLTOWN   SUNNY     40  26  57 W9        29.79R WCI  34
CEDAR RAPIDS   SUNNY     40  27  59 SW13      29.81R WCI  32
$$

...NORTHERN ILLINOIS...


CITY           SKY/WX    TMP DP  RH WIND       PRES   REMARKS
CHICAGO-OHARE  MOSUNNY   39  25  57 SW10      29.90R WCI  32
CHICAGO-MIDWAY MOSUNNY   39  26  59 SW10      29.91R WCI  32
MOLINE         SUNNY     42  26  53 SW12      29.86R
ROCKFORD       MOSUNNY   37  25  61 S8        29.89R WCI  31
PEORIA         SUNNY     40  27  59 SW13      29.92R WCI  32
$$

NOTE: "FAIR" INDICATES FEW OR NO CLOUDS BELOW 12,000 FEET WITH NO
SIGNIFICANT WEATHER AND/OR OBSTRUCTIONS TO VISIBILITY. WIND
SPEEDS ARE IN MILES-PER-HOUR.




USA.gov is the U.S. government's official web portal to all federal, state and local government web resources and services.